Location: Grand Rapids
(42.9630°N, 85.6680°W)
Time: 01:55:37
(UTC-04:00)

A-11 Canister half - Pass Details

Date: 01 June 2024
Orbit: 1524 x 1684 km, 47.3° (Epoch: 21 June)

Event Time Altitude Azimuth Distance (km) Brightness Sun altitude
Rises 16:59:26 0° 166° (SSE) 4,667 11.5 44.1°
Reaches altitude 10° 17:06:19 10° 131° (SE) 3,683 10.8 42.9°
Maximum altitude 17:07:52 11° 121° (ESE) 3,645 10.7 42.6°
Drops below altitude 10° 17:09:25 10° 111° (ESE) 3,687 10.7 42.3°
Sets 17:16:17 0° 76° (ENE) 4,693 11.1 41.1°
